Wetterdaten: Freitag, 20.05.2011
Datum Zeit Temp. A. Feuchte A. Luftdruck Regen Wind Richtung Richtung Sonnenschein UV Solar Windben
20.05.2011 00:00 15,2 C 84 % 1017,1 hPa 0,3 mm 0,0 km/h (0 Bft) N-NO 22 0 min 0 UV-I 0 W/m 6,4 km/h (2 Bft)
20.05.2011 00:10 15,0 C 86 % 1017,1 hPa 0,0 mm 0,0 km/h (0 Bft) N-NO 22 0 min 0 UV-I 0 W/m 4,8 km/h (1 Bft)
20.05.2011 00:20 14,8 C 87 % 1017,0 hPa 0,0 mm 0,0 km/h (0 Bft) N 0 0 min 0 UV-I 0 W/m 0,0 km/h (0 Bft)
20.05.2011 00:30 14,4 C 88 % 1016,9 hPa 0,0 mm 0,0 km/h (0 Bft) N 0 0 min 0 UV-I 0 W/m 0,0 km/h (0 Bft)
20.05.2011 00:40 14,1 C 89 % 1017,1 hPa 0,0 mm 0,0 km/h (0 Bft) N 0 0 min 0 UV-I 0 W/m 0,0 km/h (0 Bft)
20.05.2011 00:50 14,1 C 89 % 1017,0 hPa 0,0 mm 0,0 km/h (0 Bft) N 0 0 min 0 UV-I 0 W/m 0,0 km/h (0 Bft)
20.05.2011 01:00 13,9 C 90 % 1017,1 hPa 0,0 mm 0,0 km/h (0 Bft) N 0 0 min 0 UV-I 0 W/m 0,0 km/h (0 Bft)
20.05.2011 01:10 13,9 C 90 % 1017,0 hPa 0,0 mm 0,0 km/h (0 Bft) N-NO 22 0 min 0 UV-I 0 W/m 1,6 km/h (1 Bft)
20.05.2011 01:20 13,9 C 90 % 1017,0 hPa 0,0 mm 0,0 km/h (0 Bft) N 0 0 min 0 UV-I 0 W/m 0,0 km/h (0 Bft)
20.05.2011 01:30 13,8 C 90 % 1017,0 hPa 0,0 mm 0,0 km/h (0 Bft) N 0 0 min 0 UV-I 0 W/m 0,0 km/h (0 Bft)
20.05.2011 01:40 13,6 C 90 % 1017,0 hPa 0,0 mm 0,0 km/h (0 Bft) N 0 0 min 0 UV-I 0 W/m 0,0 km/h (0 Bft)
20.05.2011 01:50 13,4 C 91 % 1017,0 hPa 0,0 mm 0,0 km/h (0 Bft) N-NO 22 0 min 0 UV-I 0 W/m 1,6 km/h (1 Bft)
20.05.2011 02:00 13,3 C 91 % 1017,0 hPa 0,0 mm 0,0 km/h (0 Bft) N 0 0 min 0 UV-I 0 W/m 0,0 km/h (0 Bft)
20.05.2011 02:10 13,2 C 91 % 1016,9 hPa 0,0 mm 0,0 km/h (0 Bft) N 0 0 min 0 UV-I 0 W/m 0,0 km/h (0 Bft)
20.05.2011 02:20 13,0 C 91 % 1017,0 hPa 0,0 mm 0,0 km/h (0 Bft) N-NO 22 0 min 0 UV-I 0 W/m 3,2 km/h (1 Bft)
20.05.2011 02:30 13,0 C 91 % 1016,8 hPa 0,0 mm 0,0 km/h (0 Bft) N-NO 22 0 min 0 UV-I 0 W/m 1,6 km/h (1 Bft)
20.05.2011 02:40 12,9 C 91 % 1016,8 hPa 0,0 mm 0,0 km/h (0 Bft) N 0 0 min 0 UV-I 0 W/m 0,0 km/h (0 Bft)
20.05.2011 02:50 12,8 C 92 % 1016,8 hPa 0,0 mm 0,0 km/h (0 Bft) N-NO 22 0 min 0 UV-I 0 W/m 1,6 km/h (1 Bft)
20.05.2011 03:00 12,7 C 92 % 1016,7 hPa 0,0 mm 0,0 km/h (0 Bft) N 0 0 min 0 UV-I 0 W/m 0,0 km/h (0 Bft)
20.05.2011 03:10 12,7 C 92 % 1016,7 hPa 0,0 mm 0,0 km/h (0 Bft) N 0 0 min 0 UV-I 0 W/m 0,0 km/h (0 Bft)
20.05.2011 03:20 12,7 C 92 % 1016,7 hPa 0,0 mm 0,0 km/h (0 Bft) N 0 0 min 0 UV-I 0 W/m 0,0 km/h (0 Bft)
20.05.2011 03:30 12,5 C 92 % 1016,6 hPa 0,0 mm 0,0 km/h (0 Bft) N 0 0 min 0 UV-I 0 W/m 0,0 km/h (0 Bft)
20.05.2011 03:40 12,4 C 92 % 1016,6 hPa 0,0 mm 0,0 km/h (0 Bft) N 0 0 min 0 UV-I 0 W/m 0,0 km/h (0 Bft)
20.05.2011 03:50 12,3 C 92 % 1016,6 hPa 0,0 mm 0,0 km/h (0 Bft) N 0 0 min 0 UV-I 0 W/m 0,0 km/h (0 Bft)
20.05.2011 04:00 12,3 C 92 % 1016,5 hPa 0,0 mm 0,0 km/h (0 Bft) N 0 0 min 0 UV-I 0 W/m 0,0 km/h (0 Bft)
20.05.2011 04:10 12,4 C 93 % 1016,5 hPa 0,0 mm 0,0 km/h (0 Bft) N 0 0 min 0 UV-I 0 W/m 0,0 km/h (0 Bft)
20.05.2011 04:20 12,4 C 92 % 1016,4 hPa 0,0 mm 0,0 km/h (0 Bft) N 0 0 min 0 UV-I 0 W/m 0,0 km/h (0 Bft)
20.05.2011 04:30 12,5 C 93 % 1016,3 hPa 0,0 mm 0,0 km/h (0 Bft) N 0 0 min 0 UV-I 0 W/m 0,0 km/h (0 Bft)
20.05.2011 04:40 12,6 C 93 % 1016,3 hPa 0,0 mm 0,0 km/h (0 Bft) N 0 0 min 0 UV-I 0 W/m 0,0 km/h (0 Bft)
20.05.2011 04:50 12,7 C 93 % 1016,3 hPa 0,0 mm 0,0 km/h (0 Bft) N 0 0 min 0 UV-I 0 W/m 0,0 km/h (0 Bft)
20.05.2011 05:00 12,7 C 93 % 1016,3 hPa 0,0 mm 0,0 km/h (0 Bft) N 0 0 min 0 UV-I 0 W/m 0,0 km/h (0 Bft)
20.05.2011 05:10 12,7 C 93 % 1016,5 hPa 0,0 mm 0,0 km/h (0 Bft) N-NO 22 0 min 0 UV-I 0 W/m 1,6 km/h (1 Bft)
20.05.2011 05:20 12,8 C 93 % 1016,4 hPa 0,0 mm 0,0 km/h (0 Bft) N 0 0 min 0 UV-I 0 W/m 0,0 km/h (0 Bft)
20.05.2011 05:30 12,8 C 93 % 1016,5 hPa 0,0 mm 0,0 km/h (0 Bft) N 0 0 min 0 UV-I 0 W/m 0,0 km/h (0 Bft)
20.05.2011 05:40 12,8 C 93 % 1016,6 hPa 0,0 mm 0,0 km/h (0 Bft) N-NO 22 0 min 0 UV-I 5 W/m 1,6 km/h (1 Bft)
20.05.2011 05:50 12,7 C 93 % 1016,5 hPa 0,0 mm 0,0 km/h (0 Bft) N 0 0 min 0 UV-I 12 W/m 0,0 km/h (0 Bft)
20.05.2011 06:00 12,7 C 93 % 1016,6 hPa 0,0 mm 0,0 km/h (0 Bft) N 0 0 min 0 UV-I 19 W/m 0,0 km/h (0 Bft)
20.05.2011 06:10 12,8 C 93 % 1016,6 hPa 0,0 mm 0,0 km/h (0 Bft) N 0 0 min 0 UV-I 23 W/m 0,0 km/h (0 Bft)
20.05.2011 06:20 12,8 C 93 % 1016,6 hPa 0,0 mm 0,0 km/h (0 Bft) N-NO 22 0 min 0 UV-I 32 W/m 1,6 km/h (1 Bft)
20.05.2011 06:30 12,8 C 93 % 1016,7 hPa 0,0 mm 0,0 km/h (0 Bft) N-NO 22 0 min 0 UV-I 37 W/m 1,6 km/h (1 Bft)
20.05.2011 06:40 12,9 C 93 % 1016,7 hPa 0,0 mm 0,0 km/h (0 Bft) N-NO 22 0 min 0 UV-I 39 W/m 3,2 km/h (1 Bft)
20.05.2011 06:50 12,9 C 93 % 1016,8 hPa 0,0 mm 0,0 km/h (0 Bft) N-NO 22 0 min 0 UV-I 60 W/m 4,8 km/h (1 Bft)
20.05.2011 07:00 12,9 C 93 % 1016,8 hPa 0,0 mm 0,0 km/h (0 Bft) N-NO 22 0 min 0 UV-I 62 W/m 6,4 km/h (2 Bft)
20.05.2011 07:10 13,1 C 93 % 1016,9 hPa 0,0 mm 0,0 km/h (0 Bft) N-NO 22 0 min 0 UV-I 60 W/m 1,6 km/h (1 Bft)
20.05.2011 07:20 13,1 C 93 % 1016,9 hPa 0,0 mm 0,0 km/h (0 Bft) N-NO 22 0 min 0 UV-I 63 W/m 3,2 km/h (1 Bft)
20.05.2011 07:30 13,0 C 93 % 1016,9 hPa 0,0 mm 0,0 km/h (0 Bft) N-NO 22 0 min 1 UV-I 76 W/m 1,6 km/h (1 Bft)
20.05.2011 07:40 13,0 C 93 % 1017,0 hPa 0,0 mm 0,0 km/h (0 Bft) N-NO 22 0 min 1 UV-I 160 W/m 4,8 km/h (1 Bft)
20.05.2011 07:50 13,3 C 93 % 1017,0 hPa 0,0 mm 0,0 km/h (0 Bft) N-NO 22 10 min 1 UV-I 267 W/m 6,4 km/h (2 Bft)
20.05.2011 08:00 13,6 C 92 % 1017,1 hPa 0,0 mm 1,6 km/h (1 Bft) N-NO 22 10 min 1 UV-I 264 W/m 8,0 km/h (2 Bft)
20.05.2011 08:10 13,8 C 92 % 1017,0 hPa 0,0 mm 0,0 km/h (0 Bft) N-NO 22 10 min 1 UV-I 274 W/m 4,8 km/h (1 Bft)
20.05.2011 08:20 13,9 C 91 % 1017,1 hPa 0,0 mm 1,6 km/h (1 Bft) N-NO 22 10 min 1 UV-I 271 W/m 6,4 km/h (2 Bft)
20.05.2011 08:30 14,0 C 92 % 1017,1 hPa 0,0 mm 0,0 km/h (0 Bft) N-NO 22 10 min 1 UV-I 304 W/m 3,2 km/h (1 Bft)
20.05.2011 08:40 14,6 C 90 % 1017,2 hPa 0,0 mm 0,0 km/h (0 Bft) N-NO 22 10 min 2 UV-I 345 W/m 4,8 km/h (1 Bft)
20.05.2011 08:50 15,0 C 89 % 1017,2 hPa 0,0 mm 0,0 km/h (0 Bft) N-NO 22 10 min 2 UV-I 367 W/m 3,2 km/h (1 Bft)
20.05.2011 09:00 15,3 C 88 % 1017,2 hPa 0,0 mm 0,0 km/h (0 Bft) N-NO 22 10 min 2 UV-I 385 W/m 3,2 km/h (1 Bft)
20.05.2011 09:10 15,9 C 86 % 1017,1 hPa 0,0 mm 0,0 km/h (0 Bft) N-NO 22 10 min 2 UV-I 427 W/m 3,2 km/h (1 Bft)
20.05.2011 09:20 16,3 C 84 % 1017,2 hPa 0,0 mm 0,0 km/h (0 Bft) N-NO 22 10 min 2 UV-I 441 W/m 4,8 km/h (1 Bft)
20.05.2011 09:30 16,7 C 82 % 1017,2 hPa 0,0 mm 1,6 km/h (1 Bft) N-NO 22 10 min 2 UV-I 462 W/m 8,0 km/h (2 Bft)
20.05.2011 09:40 16,8 C 82 % 1017,2 hPa 0,0 mm 1,6 km/h (1 Bft) N 360 10 min 2 UV-I 483 W/m 6,4 km/h (2 Bft)
20.05.2011 09:50 17,0 C 81 % 1017,3 hPa 0,0 mm 1,6 km/h (1 Bft) N 360 10 min 3 UV-I 557 W/m 9,7 km/h (2 Bft)
20.05.2011 10:00 17,2 C 79 % 1017,3 hPa 0,0 mm 1,6 km/h (1 Bft) N 360 10 min 3 UV-I 596 W/m 8,0 km/h (2 Bft)
20.05.2011 10:10 17,4 C 78 % 1017,2 hPa 0,0 mm 3,2 km/h (1 Bft) N 360 10 min 2 UV-I 403 W/m 9,7 km/h (2 Bft)
20.05.2011 10:20 17,7 C 77 % 1017,2 hPa 0,0 mm 3,2 km/h (1 Bft) N-NW 337 0 min 2 UV-I 323 W/m 8,0 km/h (2 Bft)
20.05.2011 10:30 17,9 C 77 % 1017,2 hPa 0,0 mm 3,2 km/h (1 Bft) N-NW 337 10 min 3 UV-I 619 W/m 9,7 km/h (2 Bft)
20.05.2011 10:40 18,1 C 76 % 1017,2 hPa 0,0 mm 1,6 km/h (1 Bft) N-NW 337 10 min 3 UV-I 592 W/m 9,7 km/h (2 Bft)
20.05.2011 10:50 18,1 C 74 % 1017,4 hPa 0,0 mm 4,8 km/h (1 Bft) NW 315 10 min 4 UV-I 612 W/m 14,5 km/h (3 Bft)
20.05.2011 11:00 18,2 C 74 % 1017,4 hPa 0,0 mm 3,2 km/h (1 Bft) NW 315 10 min 4 UV-I 687 W/m 11,3 km/h (2 Bft)
20.05.2011 11:10 18,8 C 73 % 1017,5 hPa 0,0 mm 7,2 km/h (2 Bft) W-NW 303 10 min 4 UV-I 635 W/m 14,5 km/h (3 Bft)
20.05.2011 11:20 18,9 C 73 % 1017,6 hPa 0,0 mm 3,4 km/h (1 Bft) W-NW 296 10 min 3 UV-I 433 W/m 12,9 km/h (3 Bft)
20.05.2011 11:30 19,1 C 72 % 1017,6 hPa 0,0 mm 3,2 km/h (1 Bft) W-NW 292 10 min 4 UV-I 490 W/m 9,7 km/h (2 Bft)
20.05.2011 11:40 19,1 C 72 % 1017,6 hPa 0,0 mm 1,6 km/h (1 Bft) W-NW 292 10 min 4 UV-I 519 W/m 9,7 km/h (2 Bft)
20.05.2011 11:50 19,3 C 72 % 1017,6 hPa 0,0 mm 1,6 km/h (1 Bft) W-NW 292 10 min 5 UV-I 689 W/m 8,0 km/h (2 Bft)
20.05.2011 12:00 19,6 C 71 % 1017,6 hPa 0,0 mm 3,2 km/h (1 Bft) W-NW 292 10 min 4 UV-I 624 W/m 9,7 km/h (2 Bft)
20.05.2011 12:10 19,6 C 70 % 1017,6 hPa 0,0 mm 3,2 km/h (1 Bft) W-NW 292 10 min 6 UV-I 831 W/m 9,7 km/h (2 Bft)
20.05.2011 12:20 19,9 C 67 % 1017,4 hPa 0,0 mm 4,8 km/h (1 Bft) W-NW 292 10 min 6 UV-I 861 W/m 12,9 km/h (3 Bft)
20.05.2011 12:30 20,0 C 70 % 1017,2 hPa 0,0 mm 4,8 km/h (1 Bft) W-NW 292 10 min 6 UV-I 967 W/m 11,3 km/h (2 Bft)
20.05.2011 12:40 20,6 C 67 % 1017,4 hPa 0,0 mm 1,6 km/h (1 Bft) W-NW 292 10 min 6 UV-I 958 W/m 9,7 km/h (2 Bft)
20.05.2011 12:50 20,6 C 66 % 1017,4 hPa 0,0 mm 4,8 km/h (1 Bft) W 270 10 min 5 UV-I 629 W/m 16,1 km/h (3 Bft)
20.05.2011 13:00 20,6 C 68 % 1017,1 hPa 0,0 mm 3,2 km/h (1 Bft) W 270 10 min 6 UV-I 912 W/m 9,7 km/h (2 Bft)
20.05.2011 13:10 21,1 C 65 % 1017,2 hPa 0,0 mm 4,8 km/h (1 Bft) W 270 10 min 6 UV-I 879 W/m 12,9 km/h (3 Bft)
20.05.2011 13:20 20,8 C 65 % 1017,2 hPa 0,0 mm 3,2 km/h (1 Bft) W 270 10 min 5 UV-I 719 W/m 9,7 km/h (2 Bft)
20.05.2011 13:30 21,1 C 63 % 1017,3 hPa 0,0 mm 4,8 km/h (1 Bft) W-NW 292 10 min 6 UV-I 824 W/m 12,9 km/h (3 Bft)
20.05.2011 13:40 21,3 C 60 % 1017,4 hPa 0,0 mm 3,2 km/h (1 Bft) W-NW 292 10 min 5 UV-I 650 W/m 9,7 km/h (2 Bft)
20.05.2011 13:50 21,5 C 59 % 1017,3 hPa 0,0 mm 4,8 km/h (1 Bft) W 270 10 min 4 UV-I 512 W/m 11,3 km/h (2 Bft)
20.05.2011 14:00 21,2 C 59 % 1017,2 hPa 0,0 mm 4,8 km/h (1 Bft) W 270 10 min 4 UV-I 508 W/m 16,1 km/h (3 Bft)
20.05.2011 14:10 21,2 C 61 % 1016,9 hPa 0,0 mm 3,2 km/h (1 Bft) W 270 10 min 4 UV-I 640 W/m 9,7 km/h (2 Bft)
20.05.2011 14:20 21,6 C 58 % 1017,0 hPa 0,0 mm 3,2 km/h (1 Bft) W 270 10 min 4 UV-I 559 W/m 14,5 km/h (3 Bft)
20.05.2011 14:30 21,8 C 54 % 1016,9 hPa 0,0 mm 3,2 km/h (1 Bft) W 270 10 min 5 UV-I 649 W/m 14,5 km/h (3 Bft)
20.05.2011 14:40 21,8 C 55 % 1016,9 hPa 0,0 mm 4,8 km/h (1 Bft) W-NW 292 10 min 5 UV-I 763 W/m 17,7 km/h (3 Bft)
20.05.2011 14:50 22,1 C 54 % 1016,9 hPa 0,0 mm 4,8 km/h (1 Bft) W-SW 247 10 min 4 UV-I 622 W/m 20,9 km/h (4 Bft)
20.05.2011 15:00 22,0 C 55 % 1016,9 hPa 0,0 mm 4,8 km/h (1 Bft) W 270 10 min 4 UV-I 483 W/m 14,5 km/h (3 Bft)
20.05.2011 15:10 21,8 C 54 % 1016,9 hPa 0,0 mm 3,2 km/h (1 Bft) W-SW 247 10 min 4 UV-I 663 W/m 16,1 km/h (3 Bft)
20.05.2011 15:20 22,1 C 54 % 1016,7 hPa 0,0 mm 3,2 km/h (1 Bft) W 270 10 min 4 UV-I 571 W/m 14,5 km/h (3 Bft)
20.05.2011 15:30 22,2 C 55 % 1016,6 hPa 0,0 mm 3,2 km/h (1 Bft) W-NW 292 10 min 4 UV-I 835 W/m 12,9 km/h (3 Bft)
20.05.2011 15:40 22,7 C 53 % 1016,6 hPa 0,0 mm 4,8 km/h (1 Bft) W 270 10 min 4 UV-I 749 W/m 16,1 km/h (3 Bft)
20.05.2011 15:50 22,3 C 52 % 1016,5 hPa 0,0 mm 6,4 km/h (2 Bft) W 270 0 min 3 UV-I 394 W/m 17,7 km/h (3 Bft)
20.05.2011 16:00 22,6 C 52 % 1016,6 hPa 0,0 mm 6,4 km/h (2 Bft) W-SW 247 10 min 4 UV-I 853 W/m 16,1 km/h (3 Bft)
20.05.2011 16:10 23,1 C 51 % 1016,5 hPa 0,0 mm 6,4 km/h (2 Bft) W-NW 292 10 min 4 UV-I 824 W/m 17,7 km/h (3 Bft)
20.05.2011 16:20 22,3 C 52 % 1016,3 hPa 0,0 mm 4,8 km/h (1 Bft) W 270 10 min 3 UV-I 401 W/m 14,5 km/h (3 Bft)
20.05.2011 16:30 22,2 C 52 % 1016,4 hPa 0,0 mm 4,8 km/h (1 Bft) W 270 0 min 2 UV-I 318 W/m 14,5 km/h (3 Bft)
20.05.2011 16:40 21,9 C 54 % 1016,4 hPa 0,0 mm 3,2 km/h (1 Bft) W 270 0 min 2 UV-I 232 W/m 9,7 km/h (2 Bft)
20.05.2011 16:50 21,8 C 55 % 1016,6 hPa 0,0 mm 1,6 km/h (1 Bft) W 270 0 min 1 UV-I 216 W/m 9,7 km/h (2 Bft)
20.05.2011 17:00 21,7 C 52 % 1016,8 hPa 0,0 mm 3,2 km/h (1 Bft) W-NW 292 0 min 2 UV-I 229 W/m 16,1 km/h (3 Bft)
20.05.2011 17:10 21,6 C 54 % 1016,9 hPa 0,0 mm 1,6 km/h (1 Bft) W-NW 292 0 min 2 UV-I 213 W/m 14,5 km/h (3 Bft)
20.05.2011 17:20 21,6 C 53 % 1016,9 hPa 0,0 mm 3,2 km/h (1 Bft) W-NW 292 0 min 1 UV-I 172 W/m 9,7 km/h (2 Bft)
20.05.2011 17:30 21,4 C 53 % 1016,9 hPa 0,0 mm 3,2 km/h (1 Bft) W-NW 292 0 min 1 UV-I 185 W/m 11,3 km/h (2 Bft)
20.05.2011 17:40 21,5 C 53 % 1016,8 hPa 0,0 mm 1,6 km/h (1 Bft) W 270 0 min 1 UV-I 220 W/m 8,0 km/h (2 Bft)
20.05.2011 17:50 21,6 C 52 % 1016,8 hPa 0,0 mm 3,2 km/h (1 Bft) W 270 10 min 1 UV-I 323 W/m 14,5 km/h (3 Bft)
20.05.2011 18:00 21,8 C 51 % 1016,6 hPa 0,0 mm 3,2 km/h (1 Bft) W 270 10 min 2 UV-I 439 W/m 9,7 km/h (2 Bft)
20.05.2011 18:10 21,8 C 53 % 1016,6 hPa 0,0 mm 3,2 km/h (1 Bft) W 270 0 min 1 UV-I 132 W/m 9,7 km/h (2 Bft)
20.05.2011 18:20 21,4 C 53 % 1016,7 hPa 0,0 mm 1,6 km/h (1 Bft) W 270 0 min 1 UV-I 156 W/m 9,7 km/h (2 Bft)
20.05.2011 18:30 21,4 C 53 % 1016,6 hPa 0,0 mm 3,2 km/h (1 Bft) W 270 10 min 1 UV-I 278 W/m 8,0 km/h (2 Bft)
20.05.2011 18:40 21,6 C 52 % 1016,5 hPa 0,0 mm 3,2 km/h (1 Bft) W 270 10 min 1 UV-I 374 W/m 9,7 km/h (2 Bft)
20.05.2011 18:50 21,9 C 51 % 1016,5 hPa 0,0 mm 3,2 km/h (1 Bft) W 270 10 min 1 UV-I 292 W/m 9,7 km/h (2 Bft)
20.05.2011 19:00 21,9 C 51 % 1016,4 hPa 0,0 mm 1,6 km/h (1 Bft) W 270 10 min 1 UV-I 255 W/m 8,0 km/h (2 Bft)
20.05.2011 19:10 21,8 C 52 % 1016,4 hPa 0,0 mm 1,6 km/h (1 Bft) W 270 10 min 1 UV-I 216 W/m 4,8 km/h (1 Bft)
20.05.2011 19:20 21,9 C 52 % 1016,3 hPa 0,0 mm 0,0 km/h (0 Bft) W 270 10 min 1 UV-I 214 W/m 3,2 km/h (1 Bft)
20.05.2011 19:30 21,8 C 53 % 1016,3 hPa 0,0 mm 0,0 km/h (0 Bft) W 270 10 min 1 UV-I 178 W/m 1,6 km/h (1 Bft)
20.05.2011 19:40 21,6 C 54 % 1016,3 hPa 0,0 mm 0,0 km/h (0 Bft) W 270 10 min 1 UV-I 146 W/m 3,2 km/h (1 Bft)
20.05.2011 19:50 21,4 C 54 % 1016,3 hPa 0,0 mm 0,0 km/h (0 Bft) W 270 10 min 0 UV-I 118 W/m 1,6 km/h (1 Bft)
20.05.2011 20:00 21,1 C 55 % 1016,4 hPa 0,0 mm 0,0 km/h (0 Bft) W 270 10 min 0 UV-I 97 W/m 3,2 km/h (1 Bft)
20.05.2011 20:10 20,8 C 55 % 1016,5 hPa 0,0 mm 0,0 km/h (0 Bft) W 270 0 min 0 UV-I 77 W/m 1,6 km/h (1 Bft)
20.05.2011 20:20 20,6 C 56 % 1016,6 hPa 0,0 mm 0,0 km/h (0 Bft) W 270 0 min 0 UV-I 54 W/m 1,6 km/h (1 Bft)
20.05.2011 20:30 20,2 C 60 % 1016,7 hPa 0,0 mm 0,0 km/h (0 Bft) N 0 0 min 0 UV-I 44 W/m 0,0 km/h (0 Bft)
20.05.2011 20:40 19,8 C 64 % 1016,9 hPa 0,0 mm 0,0 km/h (0 Bft) N 0 0 min 0 UV-I 30 W/m 0,0 km/h (0 Bft)
20.05.2011 20:50 19,1 C 66 % 1017,0 hPa 0,0 mm 0,0 km/h (0 Bft) N 0 0 min 0 UV-I 16 W/m 0,0 km/h (0 Bft)
20.05.2011 21:00 18,6 C 68 % 1017,0 hPa 0,0 mm 0,0 km/h (0 Bft) N 0 0 min 0 UV-I 9 W/m 0,0 km/h (0 Bft)
20.05.2011 21:10 18,1 C 70 % 1017,2 hPa 0,0 mm 0,0 km/h (0 Bft) N 0 0 min 0 UV-I 5 W/m 0,0 km/h (0 Bft)
20.05.2011 21:20 17,8 C 71 % 1017,2 hPa 0,0 mm 0,0 km/h (0 Bft) N 0 0 min 0 UV-I 0 W/m 0,0 km/h (0 Bft)
20.05.2011 21:30 17,6 C 71 % 1017,2 hPa 0,0 mm 0,0 km/h (0 Bft) N 0 0 min 0 UV-I 0 W/m 0,0 km/h (0 Bft)
20.05.2011 21:40 17,3 C 73 % 1017,2 hPa 0,0 mm 0,0 km/h (0 Bft) N 0 0 min 0 UV-I 0 W/m 0,0 km/h (0 Bft)
20.05.2011 21:50 16,9 C 74 % 1017,3 hPa 0,0 mm 0,0 km/h (0 Bft) N 0 0 min 0 UV-I 0 W/m 0,0 km/h (0 Bft)
20.05.2011 22:00 16,7 C 76 % 1017,4 hPa 0,0 mm 0,0 km/h (0 Bft) N 0 0 min 0 UV-I 0 W/m 0,0 km/h (0 Bft)
20.05.2011 22:10 16,7 C 76 % 1017,4 hPa 0,0 mm 0,0 km/h (0 Bft) N 0 0 min 0 UV-I 0 W/m 0,0 km/h (0 Bft)
20.05.2011 22:20 16,6 C 77 % 1017,4 hPa 0,0 mm 0,0 km/h (0 Bft) N 0 0 min 0 UV-I 0 W/m 0,0 km/h (0 Bft)
20.05.2011 22:30 16,2 C 77 % 1017,6 hPa 0,0 mm 0,0 km/h (0 Bft) N 0 0 min 0 UV-I 0 W/m 0,0 km/h (0 Bft)
20.05.2011 22:40 16,1 C 78 % 1017,7 hPa 0,0 mm 0,0 km/h (0 Bft) N 0 0 min 0 UV-I 0 W/m 0,0 km/h (0 Bft)
20.05.2011 22:50 16,2 C 79 % 1017,7 hPa 0,0 mm 0,0 km/h (0 Bft) N 0 0 min 0 UV-I 0 W/m 0,0 km/h (0 Bft)
20.05.2011 23:00 16,3 C 79 % 1017,8 hPa 0,0 mm 0,0 km/h (0 Bft) N 0 0 min 0 UV-I 0 W/m 0,0 km/h (0 Bft)
20.05.2011 23:10 16,3 C 79 % 1017,9 hPa 0,0 mm 0,0 km/h (0 Bft) N 0 0 min 0 UV-I 0 W/m 0,0 km/h (0 Bft)
20.05.2011 23:20 16,3 C 79 % 1017,9 hPa 0,0 mm 0,0 km/h (0 Bft) N 0 0 min 0 UV-I 0 W/m 0,0 km/h (0 Bft)
20.05.2011 23:30 16,2 C 79 % 1018,0 hPa 0,0 mm 0,0 km/h (0 Bft) N 0 0 min 0 UV-I 0 W/m 0,0 km/h (0 Bft)
20.05.2011 23:40 16,1 C 79 % 1018,1 hPa 0,0 mm 0,0 km/h (0 Bft) N 0 0 min 0 UV-I 0 W/m 0,0 km/h (0 Bft)
20.05.2011 23:50 15,9 C 80 % 1018,1 hPa 0,0 mm 0,0 km/h (0 Bft) W 270 0 min 0 UV-I 0 W/m 1,6 km/h (1 Bft)
_ Min-Zeit 03:40 16:10 04:30 - 00:00 - - - - - 00:20
Minimum _ 12,3 C 51 % 1016,3 hPa - 0,0 km/h (0 Bft) - - - - - 0,0 km/h (0 Bft)
_ Max-Zeit 16:10 04:10 23:40 00:00 11:10 - - 07:50 12:10 12:30 14:50
Maximum _ 23,2 C 93 % 1018,1 hPa 0,3 mm 7,2 km/h
W-NW (2 Bft)
- - 10 min 6 UV-I 967 W/m 20,9 km/h
W-SW (4 Bft)
Durchschnitt _ 17,3 C 75 % 1017,0 hPa #0,3 mm 1,4 km/h (1 Bft) W - #10:20 h 3 UV-I 385 W/m 5,7 km/h (1 Bft)